Find Starlink 3981

NORAD ID: 52687 Int'l Des: 2022-053 Owner: SPXS Country: US Constellation: starlink operational
LEOCIRCULAR

リアルタイム位置

3D地球を読み込み中...

Starlink 3981について

説明を読み込み中...

次回通過

Passes for default location (London). Set your location on the main map for personalized predictions.

高度履歴

Loading altitude history...

軌道要素

1 52687U 22053AH 26107.01202707 -.00002286 00000-0 -12557-3 0 9998
2 52687 53.2181 332.0863 0001433 87.8175 272.2981 15.08847618216909
Epoch: Apr 17, 2026 • Age: 18 hours

現在のステータス

高度 544.3 km
速度 7.60 km/s
衛星直下点 48.74°N, 90.43°W
打ち上げ日 May 18, 2022
運用期間 3.9 years
タイプ internet

技術仕様

分類 Payload
質量 297.00 kg
乾燥質量 275.00 kg
総質量 297.00 kg
長さ 0.20 m
直径 2.80 m
スパン 9.00 m
形状 Box + pan
製造者 SPXS
バスタイプ Starlink
フェーズステータス In Orbit
所有者/国 SPXS/US

Most Searched